IBEX

Last updated on Thu Jul 24 2025 00:03:33 GMT+0000 (Coordinated Universal Time)

1 33401U 08051A 25206.97184344 -.00002141 00000+0 00000+0 0 9997 2 33401 46.2961 10.9471 7278850 50.1397 2.4308 0.10949703 5381
UTC large
Height (km)
Speed (km/s)
/
Latitude / Longitude
Inclination (degrees)
Orbital Period (minutes)
Azimuth
Elevation
Range (km)
Doppler Factor

Next 0 passes for location: London (51.5072 / 0.1276)

Sorry there are no passes over London.
IBEX